Location: *
(48.8780°N, 19.2358°E)
Time: 13:10:07
(UTC+00:00)

STARLINK-70 - Pass Details

Date: 18 October 2019
Orbit: 548 x 551 km, 53.0° (Epoch: 11 November)

Event Time Altitude Azimuth Distance (km) Brightness Sun altitude
Rises 17:29:18 0° 270° (W) 2,715 8.9 -17.3°
Reaches altitude 10° 17:31:35 10° 276° (W) 1,823 7.6 -17.7°
Maximum altitude 17:35:37 49° 352° (N) 716 4.2 -18.3°
Enters shadow 17:37:07 32° 47° (NE) 949 4.5 -18.6°
